STSAT-3

Last updated on Tue Jul 28 2026 00:03:39 GMT+0000 (Coordinated Universal Time)

1 39422U 13066G 26208.59440694 .00002465 00000+0 18778-3 0 9995 2 39422 97.6234 177.8338 0008567 255.2694 104.7582 15.02959369690279
UTC large
Height (km)
Speed (km/s)
/
Latitude / Longitude
Inclination (degrees)
Orbital Period (minutes)
Azimuth
Elevation
Range (km)
Doppler Factor

Next 0 passes for location: London (51.5072 / 0.1276)

No passes found over London.
STSAT-3